SCP
0 0 0 0 0 0 0 0 0 0 0 0 0 0 0 0 0 0 0 0 0 0 0 0 0 0 0 0 0 0 0 0 0 0 0 0 0 0 0 0 0 0 0 0
0 0 0 0 0 0 0 0 0 0 0 0 0 0 0 0 0 0 0 0 0 0 0 0 0 0 0 0 0 0 0 0 0 0 0 0 0 0 0 0 0 0 0 0
0 0 0 0 0 0 0 0 0 0 0 0 0 0 0 0 0 0 0 0 0 0 0 0 0 0 0 0 0 0 0 0 0 0 0 0 0 0 0 0 0 0 0 0
0 0 0 0 0 0 0 0 0 0 0 0 0 0 0 0 0 0 0 0 1 0 0 0 0 0 0 0 0 0 0 0 0 0 0 0 0 0 0 0 0 0 0 0
0 0 0 0 0 0 0 0 0 0 0 0 0 0 0 0 0 0 0 0 0 0 0 0 0 0 0 0 0 0 0 0 0 0 0 0 0 0 0 0 0 0 0 0
0 0 0 0 0 0 0 0 0 0 0 0 0 0 0 0 0 0 0 0 0 0 0 0 0 0 0 0 0 0 0 0 0 0 0 0 0 0 0 0 0 0 0 0
0 0 0 0 0 0 0 0 0 0 0 0 0 0 0 0 0 0 0 0 0 0 0 0 1 0 0 0 0 0 0 0 0 0 0 0 0 0 0 0 0 0 0 0
0 0 0 0 0 0 0 0 0 0 0 0 0 0 0 0 0 0 0 0 0 0 0 0 1 0 0 0 0 0 0 0 0 0 0 0 0 0 0 0 0 0 0 0
0 0 0 0 0 0 0 0 0 0 0 0 0 0 0 0 0 0 0 0 0 0 0 0 0 0 0 0 0 0 0 0 0 0 0 0 0 0 0 0 0 0 0 0
0 0 0 0 0 0 0 0 0 0 0 0 0 0 0 0 0 0 0 0 0 0 0 0 0 0 0 0 0 0 0 0 0 0 0 0 0 0 0 0 0 0 0 0
0 0 0 0 0 0 0 0 0 0 0 0 0 0 0 0 0 0 0 0 0 0 0 0 0 0 0 0 0 0 0 0 0 0 0 0 0 0 0 0 0 0 0 0
0 0 0 0 0 0 0 0 0 0 0 0 0 0 0 0 0 0 0 0 0 0 0 0 0 0 0 0 0 0 0 0 0 0 0 0 0 0 0 0 0 0 0 0
0 0 0 0 0 0 0 0 0 0 0 0 0 0 0 0 0 0 0 0 0 0 0 0 0 0 0 0 0 0 0 0 0 0 0 0 0 0 0 0 0 0 0 0
0 0 0 0 0 0 0 0 0 0 0 0 0 0 0 0 0 0 0 1 1 0 0 0 0 0 1 1 0 0 0 0 0 0 0 0 0 0 0 0 0 0 0 0
0 0 0 0 0 0 0 0 0 0 0 0 0 0 0 0 0 0 0 1 1 0 0 0 0 0 1 1 1 0 0 0 0 0 0 0 0 0 0 0 0 0 0 0
0 0 0 0 0 0 0 0 0 0 0 0 0 0 0 0 0 0 0 1 0 0 0 0 0 0 0 1 1 1 1 0 0 0 0 0 0 0 0 0 0 0 0 0
0 0 0 0 0 0 0 0 0 0 0 0 0 0 0 0 0 0 0 0 0 0 0 0 0 1 1 1 1 1 1 0 0 0 0 0 0 0 0 0 0 1 0 0
0 0 0 0 0 0 0 0 0 0 0 0 0 0 0 0 0 0 0 0 0 0 0 0 0 1 1 1 1 1 1 0 0 0 0 0 0 0 0 0 0 0 0 0
0 0 0 0 0 0 0 0 0 0 0 0 0 0 0 0 0 0 0 0 0 0 0 0 1 1 1 1 1 1 1 0 0 0 0 0 0 0 0 0 0 0 0 0
0 0 0 0 0 0 0 0 0 0 0 0 0 0 0 0 0 0 0 0 0 0 0 0 1 1 1 1 1 1 1 1 0 0 0 1 1 1 0 0 0 0 0 0
0 0 0 0 0 0 0 0 0 0 0 0 0 0 0 0 0 0 0 1 1 0 0 0 1 1 1 1 1 1 1 1 1 1 1 1 1 1 0 0 0 0 0 0
0 0 0 0 0 0 0 0 0 0 0 0 0 0 0 0 0 0 0 1 1 0 0 0 1 1 1 1 1 1 1 1 1 1 1 1 1 1 0 0 0 0 0 0
0 0 0 0 0 0 0 0 0 0 0 0 0 0 0 0 0 0 0 1 1 0 0 0 0 0 1 1 1 1 1 1 1 1 1 1 1 0 0 0 0 0 0 0
0 0 0 0 0 0 0 0 0 0 0 0 0 0 0 0 0 0 0 0 1 0 0 0 0 0 0 0 0 0 0 0 0 0 0 0 0 0 0 0 0 0 0 0
0 0 0 0 0 0 0 0 0 0 0 0 0 0 0 0 0 0 0 0 0 0 0 0 0 0 0 0 0 0 0 0 0 0 0 0 0 0 0 0 0 0 0 0
0 0 0 0 0 0 0 0 0 0 0 0 0 0 0 0 0 0 0 0 0 0 0 0 0 0 0 0 0 0 0 0 0 0 0 0 0 0 0 0 0 0 0 0
Wind_Speed
3 5 4 3 3 1 3 4 4 3 3 5 6 7 8 10 11 11 11 11 11 10 10 8 7 7 7 7 7 6 7 7 6 4 4 3 4 3 4 4 5 4 4 4
5 3 1 1 3 4 4 5 4 3 2 3 5 6 8 10 12 12 12 12 12 11 11 9 9 8 8 8 8 8 7 7 6 3 3 3 4 3 4 3 4 4 5 5
3 2 3 4 5 5 5 5 3 2 2 3 4 6 9 10 11 11 11 12 13 13 13 13 11 9 8 9 8 7 7 7 6 6 4 4 4 3 4 4 3 4 5 5
2 3 4 5 5 5 4 2 3 4 5 4 5 4 8 11 12 13 14 13 13 13 13 12 12 11 10 9 8 8 8 8 7 6 5 5 3 3 4 3 3 4 5 5
3 4 5 5 3 4 1 2 3 4 5 5 6 6 5 9 12 15 15 15 15 14 14 13 12 11 10 9 8 7 8 7 7 6 5 4 4 3 3 3 4 4 5 5
2 2 3 1 1 3 5 4 3 3 4 6 6 7 4 7 12 13 15 16 16 15 14 13 12 10 9 9 8 8 8 8 7 6 6 5 5 5 5 4 4 3 3 4
5 5 3 3 5 5 6 5 4 5 5 4 3 6 4 2 6 10 13 16 16 16 15 14 14 12 11 11 10 9 10 9 8 7 6 6 5 5 5 4 4 3 3 3
5 6 6 5 5 5 6 6 4 3 3 1 4 6 1 1 3 6 10 13 16 16 15 15 14 13 13 12 11 11 11 9 9 8 7 6 6 4 3 3 4 3 3 3
4 3 5 4 4 5 5 5 4 5 3 4 4 3 2 3 4 5 8 11 15 16 15 15 14 14 13 13 12 11 11 10 9 9 7 6 6 5 5 4 4 3 4 3
4 3 5 5 4 3 4 2 3 4 4 3 3 3 2 4 4 6 8 10 13 14 15 15 14 13 13 12 12 11 11 11 10 9 7 6 6 6 5 5 4 4 4 4
5 5 5 6 7 6 6 6 5 4 4 4 2 2 3 1 2 3 6 8 11 14 15 14 13 13 13 12 11 11 11 10 10 9 8 8 7 6 6 5 4 4 4 5
6 5 4 5 2 3 7 7 7 5 4 4 3 1 4 0 1 2 3 6 9 12 13 13 13 13 13 13 12 12 12 11 10 9 9 9 8 7 7 6 6 5 5 4
7 5 4 5 6 6 7 8 8 7 5 5 5 1 3 1 1 2 3 5 8 11 13 13 13 13 13 13 12 12 12 11 10 10 9 9 9 8 7 7 6 5 5 5
6 6 6 4 0 4 8 9 9 9 7 7 7 6 4 3 3 2 3 5 7 10 12 13 13 13 13 13 13 13 12 11 11 10 10 10 9 8 8 7 6 6 6 5
7 7 7 6 4 5 7 9 11 12 11 10 8 8 8 6 5 3 4 5 8 10 12 13 14 14 13 13 12 13 12 12 11 11 11 10 9 8 7 7 6 6 5 5
7 6 6 7 6 7 8 9 11 13 13 13 12 11 8 5 4 3 5 6 8 10 12 13 14 15 15 14 14 13 13 13 12 12 11 10 10 9 8 8 7 7 6 5
6 6 6 5 4 6 8 9 10 11 11 11 12 9 6 4 3 2 4 6 8 9 11 13 13 13 14 14 14 15 14 13 13 12 11 10 10 9 9 8 8 7 7 6
7 7 4 4 5 7 1 1 5 8 10 10 10 8 5 4 3 2 3 6 7 8 10 11 12 12 12 13 13 13 13 13 13 12 11 10 10 10 9 9 8 8 7 6
8 7 6 5 6 6 4 3 4 6 6 7 9 8 5 4 3 2 2 4 5 6 8 9 10 11 11 12 12 13 13 13 13 13 12 11 11 10 10 10 10 8 7 7
7 7 7 7 7 5 1 3 3 5 4 2 5 7 7 6 4 2 3 4 4 5 6 8 9 10 10 11 12 13 13 13 13 12 12 11 11 11 11 10 9 8 7 6
9 8 10 9 8 5 1 3 5 6 1 2 3 5 7 6 2 4 4 4 4 5 6 8 9 9 9 10 12 12 12 12 11 10 10 10 10 10 10 9 8 7 7 6
10 9 10 9 8 6 4 6 6 2 3 1 2 4 5 5 4 4 4 4 4 5 6 8 8 8 8 9 11 11 10 9 9 9 9 10 9 8 8 8 8 8 7 7
8 7 5 6 4 1 3 3 2 2 2 1 2 4 5 6 5 5 5 4 5 6 6 7 8 8 8 8 9 9 8 8 9 9 9 9 9 8 8 8 8 8 7 6
5 4 5 5 5 3 3 3 2 2 1 0 2 4 5 6 6 5 5 5 5 6 6 6 8 8 7 7 7 6 7 8 9 9 8 8 8 8 8 6 7 7 7 7
5 7 7 7 5 3 4 4 2 1 1 3 3 4 5 6 6 5 5 5 5 6 6 6 6 6 7 6 6 6 6 8 8 8 7 7 6 6 7 6 5 6 6 5
7 8 8 7 6 5 4 3 3 3 3 4 5 5 5 5 6 6 6 5 6 6 6 6 6 6 6 6 6 5 6 7 8 7 6 5 5 5 5 5 4 1 1 2
Wind_Direction
184 207 200 192 215 246 198 196 188 167 167 209 211 201 182 180 188 187 183 187 188 186 179 176 174 171 168 166 165 157 159 155 151 146 143 128 111 104 88 69 58 55 54 57
187 198 167 143 167 193 201 203 195 166 155 221 217 215 196 190 197 197 194 195 194 185 182 182 186 184 180 175 177 173 169 166 162 149 131 118 110 99 85 86 76 58 58 56
219 92 150 185 182 201 214 222 210 188 166 205 228 226 204 198 202 203 208 206 201 193 190 186 188 186 184 181 183 178 172 171 166 155 140 134 126 131 124 105 81 59 58 60
204 154 182 199 204 225 218 215 226 211 217 211 220 244 209 198 200 205 208 208 205 198 198 190 187 186 189 185 181 183 173 175 166 163 166 155 144 121 101 100 100 92 73 68
176 185 203 212 210 223 180 134 209 228 242 243 222 247 213 190 207 208 207 206 205 198 195 193 190 187 188 181 179 183 170 170 168 172 161 171 149 126 122 123 113 101 83 70
182 185 237 216 139 180 150 159 169 208 237 240 221 238 233 194 211 205 202 201 201 197 193 191 188 183 181 178 174 175 171 170 169 175 175 173 152 152 143 136 121 114 103 88
183 181 172 183 168 164 199 208 207 206 210 224 183 239 250 205 216 211 203 199 197 195 190 188 185 184 181 179 178 177 175 172 173 178 179 172 168 159 151 141 129 122 109 97
204 182 180 197 220 200 205 231 249 253 240 189 197 237 211 149 225 214 207 201 193 192 192 190 187 185 184 182 179 181 179 177 176 180 178 174 164 164 142 139 132 123 105 94
220 164 147 188 224 231 201 221 278 283 275 257 213 218 204 176 174 179 187 192 192 191 191 190 188 187 185 183 180 182 179 178 178 180 174 172 172 163 152 150 138 126 117 111
230 199 156 155 180 202 271 222 213 238 255 244 226 223 186 159 165 170 181 189 188 187 188 189 186 186 187 184 179 180 181 179 177 176 174 169 170 163 160 158 149 141 130 122
224 219 168 185 212 195 192 209 226 238 265 281 260 109 68 146 168 180 185 188 188 185 186 185 184 183 182 180 179 179 181 179 175 176 173 170 168 167 166 163 153 155 149 147
206 232 210 197 185 266 232 230 225 238 230 254 279 18 90 211 246 215 204 189 185 184 183 182 181 179 177 178 180 182 181 178 177 176 175 174 165 171 171 166 167 168 158 149
181 220 212 182 184 198 220 224 229 244 258 244 248 215 106 191 251 247 222 195 184 182 180 177 177 180 179 178 179 180 181 178 176 177 178 175 172 177 176 170 166 169 162 163
210 226 241 248 264 192 210 212 218 229 240 244 245 270 283 292 290 268 229 196 183 180 178 177 177 180 181 180 182 179 182 177 176 177 181 180 179 180 180 172 171 172 167 168
222 239 237 255 258 242 238 227 218 228 243 257 268 273 283 296 288 261 215 188 181 179 179 180 180 179 179 180 185 182 179 178 179 180 184 184 180 177 177 171 176 174 171 171
222 242 236 235 233 242 248 240 231 234 243 251 263 271 278 283 268 230 195 185 185 183 183 183 183 181 181 181 184 182 180 181 182 183 185 180 180 175 179 179 178 178 179 178
208 229 237 235 220 242 245 234 227 228 235 243 251 258 269 261 252 240 202 197 193 188 185 184 185 184 184 183 184 184 183 180 184 185 184 179 182 178 182 178 178 181 183 181
218 221 238 246 225 241 244 147 229 232 240 239 249 259 261 253 242 232 212 201 196 188 185 186 185 185 186 183 184 183 179 181 185 186 185 181 182 181 179 180 184 185 183 182
225 219 226 235 238 254 244 201 206 223 247 235 237 239 224 201 180 157 178 194 194 187 183 180 184 184 183 181 180 178 178 183 186 189 188 186 185 183 184 187 190 186 184 186
199 220 230 227 235 245 202 124 191 225 232 204 223 217 198 188 189 142 142 174 176 172 173 173 175 176 176 175 175 177 179 183 188 191 190 187 189 188 190 191 189 182 185 188
182 198 220 229 236 248 230 141 185 219 66 91 195 193 185 191 160 110 136 149 157 161 161 165 168 169 170 169 173 179 181 187 189 185 184 185 189 192 192 188 183 180 182 185
200 199 208 216 226 228 137 167 205 336 30 127 156 162 168 163 140 129 137 145 141 148 153 158 159 159 161 167 173 179 186 184 175 174 179 184 187 187 184 181 181 181 180 185
216 217 208 216 224 72 162 213 277 312 282 161 146 145 153 150 143 140 139 137 132 136 143 150 150 149 153 166 178 181 178 171 169 172 176 181 182 183 182 180 180 181 186 195
199 206 210 218 220 213 225 242 250 256 268 172 153 145 146 144 138 134 128 125 128 133 136 142 145 145 148 159 174 177 164 166 168 173 175 177 180 179 181 183 186 188 191 198
200 193 206 218 215 202 212 218 210 188 131 126 133 137 141 139 135 132 126 124 126 130 134 139 143 145 146 151 158 161 162 167 169 171 171 173 177 179 182 183 193 200 200 206
199 207 210 213 203 206 195 180 173 159 141 136 133 126 125 130 129 125 119 119 124 127 131 134 137 139 141 145 147 149 159 169 169 169 170 170 171 177 181 178 176 156 228 172